Location: Oshawa
(43.9000°N, 78.8670°W)
Time: 17:24:32
(UTC-04:00)

Daily predictions for brighter satellites

Satellite Brightness Start Highest point End
(mag) Time Altitude Azimuth Time Altitude Azimuth Time Altitude Azimuth
Envisat 3.4 20:42:07 10° SE 20:46:56 45° ENE 20:51:47 10° N
Meteor 1-29 4.0 20:46:32 10° NE 20:49:31 26° E 20:52:28 10° SSE
CZ-4C R/B 4.3 20:45:59 10° NNW 20:51:24 24° NNE 20:57:19 10° E
Cosmos 1867 3.7 20:49:17 10° NNW 20:54:45 70° NE 21:00:09 10° SE
Helios 1A 3.1 20:50:38 10° SSE 20:54:47 59° ENE 20:59:00 10° N
Cosmos 1733 Rocket 3.1 20:50:26 10° N 20:54:54 79° E 20:59:22 10° S
Cosmos 2026 Rocket 4.1 20:50:10 10° N 20:56:24 84° W 21:02:31 10° S
Cosmos 2322 Rocket 2.7 20:50:56 10° SSW 20:56:30 68° WNW 21:02:08 10° NNE
Cosmos 1825 2.8 20:56:15 10° NNW 21:00:01 58° W 21:03:44 10° S
SAR-Lupe-1 4.3 20:57:01 10° SSE 21:00:29 50° ENE 21:03:59 10° N
H-2A R/B 4.1 20:59:57 10° ENE 21:00:35 10° NE 21:01:12 10° NE
Cosmos 1408 3.5 20:58:30 10° NNW 21:02:06 51° W 21:05:38 10° S
Cosmos 2360 Rocket 2.3 20:58:00 10° S 21:03:31 56° ESE 21:09:04 10° NNE
ALOS 4.4 20:59:36 10° SSW 21:03:35 28° W 21:07:36 10° NW
CZ-4B DEB 4.5 21:02:05 10° SSE 21:05:36 74° ENE 21:09:09 10° N
SeaSat 1 4.4 21:03:09 10° E 21:06:05 16° NE 21:09:01 10° N
ERS-1 Rocket 3.8 21:02:05 10° SE 21:06:33 34° ENE 21:11:02 10° N
Cosmos 1939 Rocket 3.1 21:02:48 10° SSE 21:06:42 52° ENE 21:10:34 10° N
Cosmos 1862 Rocket 3.6 21:02:48 10° S 21:07:16 84° E 21:11:47 10° N
COSMOS 2428 3.5 21:04:38 10° SSE 21:09:25 29° ESE 21:14:15 10° NE
Atlas Centaur 2 3.7 21:05:44 10° SW 21:10:55 26° S 21:16:08 13° SE
ATLAS 5 CENTAUR R/B 2.6 21:05:05 10° NW 21:11:05 78° SW 21:17:36 10° SSE
Okean 2 Rocket 4.4 21:07:54 10° NNE 21:11:34 24° ENE 21:14:25 14° ESE
SPOT 5 4.3 21:09:19 11° ESE 21:12:21 20° ENE 21:15:37 10° NNE
NOSS 3-1 (C) 4.4 21:10:30 10° SSE 21:14:45 22° ESE 21:19:20 10° ENE
USA 229 DEB 3.7 21:14:31 10° SSW 21:21:12 61° ESE 21:28:02 10° NE
USA 229 3.7 21:14:38 10° SSW 21:21:19 61° ESE 21:28:08 10° NE
ARGOS 4.3 21:18:36 14° ESE 21:22:13 27° ENE 21:26:40 10° N
Cosmos 2322 3.7 21:17:59 10° SSW 21:23:40 70° ESE 21:29:21 10° NNE
Cosmos 1606 4.4 21:27:41 15° E 21:28:06 16° E 21:30:25 10° NE
SL-16 R/B 3.7 21:22:47 10° SW 21:28:07 41° WNW 21:33:28 10° NNE
Cosmos 1703 Rocket 3.7 21:23:52 10° S 21:28:11 53° E 21:32:28 10° NNE
Lacrosse 4 Rocket 4.2 21:27:44 10° WNW 21:30:14 15° WSW 21:32:45 10° SW
USA 186 3.8 21:27:54 10° SSW 21:30:19 24° W 21:32:54 10° NW
Helios 1B rocket 2.7 21:27:30 10° N 21:31:37 72° WNW 21:35:41 10° SSW
Meteor 1-14 Rocket 4.3 21:26:10 10° N 21:31:51 67° ENE 21:37:03 13° SSE
NOSS 3-1 (A) 4.5 21:28:58 14° SE 21:32:00 21° ESE 21:36:32 10° ENE
YAOGAN 6 2.5 21:34:54 18° SSE 21:37:25 69° ENE 21:41:01 10° N
Cosmos 1777 Rocket 4.0 21:36:51 10° NNW 21:42:08 67° ENE 21:45:38 21° SE
Cosmos 1844 Rocket 2.9 21:37:17 10° NNW 21:42:46 56° ENE 21:46:15 22° SE
Cosmos 2237 Rocket 3.6 21:42:54 18° ESE 21:43:15 18° E 21:46:59 10° ENE
USA 267 3.8 21:36:50 10° NE 21:43:15 61° NNW 21:49:40 10° WSW
Cosmos 2266 Rocket 4.0 21:39:23 10° N 21:45:45 84° E 21:51:42 12° S
Cosmos 2333 4.4 21:40:29 10° S 21:45:59 51° ESE 21:51:33 10° NE
Cosmos 2278 Rocket 3.4 21:41:41 10° N 21:46:33 28° NE 21:49:35 18° E
MetOp-A 4.3 21:43:22 20° SE 21:46:57 57° ENE 21:52:12 10° N
SPOT 1/Viking Rocket 4.5 21:45:28 21° ESE 21:48:01 32° ENE 21:52:37 10° N
Cosmos 2333 Rocket 3.1 21:46:22 21° SE 21:48:38 28° ESE 21:53:27 10° NE
Terra 3.7 21:49:20 14° E 21:50:55 16° ENE 21:53:44 10° NNE
Meteor 2-10 Rocket 4.1 21:45:42 10° SSW 21:51:29 68° WNW 21:57:13 10° N
Cosmos 2221 Rocket 3.5 21:53:09 12° S 21:57:13 82° E 22:01:40 10° N
YAOGAN 11 4.1 21:57:16 30° SE 21:59:19 63° ENE 22:03:36 10° N
BREEZE-M DEB (TANK) 4.2 21:59:58 10° WNW 22:03:49 77° N 22:17:04 10° E
Abrixas rocket 3.0 22:00:50 10° WNW 22:04:01 45° NNE 22:05:13 30° ENE
Cosmos 2219 Rocket 2.4 22:01:52 17° S 22:05:56 47° ESE 22:11:18 10° NE
H-2A R/B 3.4 22:10:39 23° E 22:11:24 24° ENE 22:14:55 10° NNE
Cosmos 1633 3.3 22:10:18 10° N 22:13:44 36° ENE 22:13:48 36° E
USA 234 3.3 22:14:54 29° SSE 22:18:32 69° SW 22:25:04 10° NW
Cosmos 1553 Rocket 4.3 22:21:38 34° SE 22:23:50 47° E 22:29:44 10° NNE
Cosmos 1782 2.8 22:24:25 39° SSW 22:25:50 85° W 22:29:51 10° N
Cosmos 1300 Rocket 4.2 22:27:18 10° N 22:31:24 38° ENE 22:31:32 38° E
Cosmos 1602 4.1 22:28:17 10° N 22:31:54 49° ENE 22:31:54 49° ENE
SL-08 RB Rocket 3.6 22:33:13 49° SSE 22:34:26 89° SW 22:39:01 10° NNW
Okean 1-7 4.2 22:33:16 11° SSW 22:37:11 41° WNW 22:41:23 10° N
Cosmos 1346 Rocket 3.0 22:39:07 54° ENE 22:39:07 54° ENE 22:42:36 10° NNE
H-2A R/B 1.9 22:37:55 51° SE 22:39:09 75° ENE 22:44:04 10° N
CZ-4C R/B 2.9 22:34:02 10° NW 22:41:07 73° NE 22:44:27 37° SE
Meteor 1-27 Rocket 3.7 22:39:55 46° SSE 22:41:25 62° E 22:46:55 10° NNE
SeaSat 1 2.3 22:41:46 53° SE 22:42:56 85° ENE 22:47:55 10° NNW
ERS-1 Rocket 4.5 22:42:00 16° SSW 22:45:19 31° W 22:49:45 10° NW
USA 245 4.4 22:43:26 33° SSW 22:45:40 59° WSW 22:50:16 10° NNW
SWAS 4.3 22:41:29 10° NNW 22:45:51 87° ENE 22:46:09 77° SE
Cosmos 2084 3.2 22:42:11 10° NW 22:46:00 77° WSW 22:46:00 77° WSW
Cosmos 2360 Rocket 4.4 22:43:14 10° WSW 22:47:53 25° NW 22:52:34 10° N
SPOT 5 3.4 22:48:34 35° SSW 22:50:08 49° W 22:54:35 10° NNW
Cosmos 1570 Rocket 4.1 22:47:23 25° SSW 22:50:29 78° WNW 22:55:48 10° NNE
COSMOS 2428 3.8 22:48:02 10° SW 22:53:27 45° WNW 22:58:56 10° NNE
Cosmos 1937 Rocket 4.0 22:48:36 10° N 22:53:37 44° ENE 22:54:16 42° E
DMSP B5D2-2 4.0 22:50:05 10° NNE 22:55:20 62° ESE 22:55:51 59° SE
S3M 3.9 22:53:35 45° S 22:55:36 78° E 23:01:50 10° N
Nimbus 7 Rocket 4.5 22:49:40 10° NNE 22:55:38 78° WNW 22:59:10 26° SSW
Meteor 2-11 Rocket 4.4 22:55:27 51° SE 22:56:47 64° E 23:02:48 10° NNE
Atlas Centaur 2 4.0 22:53:59 10° WSW 22:58:46 24° SSW 22:58:46 24° SSW
Cosmos 1980 3.5 22:58:04 46° SSW 22:59:50 81° ESE 23:05:31 10° NNE
Cosmos 1844 4.4 22:56:06 10° NW 23:01:29 46° WSW 23:03:07 36° SSW
ARGOS 4.0 23:00:07 30° SSW 23:02:13 44° W 23:07:22 10° NNW
Cosmos 2208 Rocket 4.3 22:59:30 27° SW 23:02:28 68° WNW 23:07:46 10° NNE
Cosmos 1606 4.1 23:02:44 30° WSW 23:03:35 35° WNW 23:07:05 10° N
NOSS 3-1 (C) 3.7 22:59:03 10° SW 23:04:50 68° NW 23:11:25 10° NE
Okean 3 4.4 23:06:16 36° NE 23:06:16 36° NE 23:09:06 10° NNE
Cosmos 858 Rocket 4.4 23:00:29 10° NNW 23:05:42 67° ENE 23:06:06 64° E
ATLAS CENTAUR R/B 3.9 23:09:39 12° NE 23:09:39 12° NE 23:10:03 10° NE
SL-16 R/B 3.1 23:07:51 33° ENE 23:07:51 33° ENE 23:11:47 10° NE
Meteor 1-11 Rocket 3.7 23:02:07 10° NNW 23:07:40 76° W 23:08:50 56° SSW
Iridium 4 Rocket 3.2 23:03:31 10° N 23:07:08 64° NNE 23:07:08 64° NNE
ASTEX 1 3.3 23:08:04 71° SSW 23:08:36 84° W 23:13:37 10° N
Landsat 7 3.9 23:12:37 63° SW 23:13:00 65° WSW 23:17:45 10° NNW
deb Chang Zheng 4 3.8 23:10:52 10° NNE 23:14:36 62° NNE 23:14:36 62° NNE
Cosmos 2150 Rocket 4.0 23:10:10 10° NNW 23:15:38 72° ENE 23:16:02 68° E
IGS 5A 3.8 23:17:57 64° NNW 23:17:57 64° NNW 23:21:32 10° NNW
CRYOSAT 2 4.2 23:17:18 89° SSE 23:17:20 90° E 23:22:15 10° N
CARTOSAT-1 3.7 23:19:48 69° NW 23:19:48 69° NW 23:23:44 10° NNW
Cosmos 1763 Rocket 4.4 23:21:29 36° ENE 23:21:29 36° ENE 23:25:08 10° NNE
Cosmos 1898 Rocket 3.3 23:15:03 10° NNW 23:20:15 80° WSW 23:20:27 78° SW
Timation 1 Rocket 4.2 23:15:00 10° NNW 23:21:00 80° WSW 23:21:48 67° S
NOSS 3-1 (A) 3.6 23:16:17 10° SW 23:22:06 69° NW 23:28:42 10° NE
ATLAS 2AS CENTAUR R/B 3.5 23:23:54 39° ESE 23:23:54 39° ESE 23:30:40 10° NE
Cosmos 1844 Rocket 4.4 23:22:03 10° NW 23:26:13 22° W 23:27:56 19° SW
Cosmos 2237 Rocket 2.4 23:24:37 40° SW 23:26:40 69° WNW 23:32:23 10° NNE
Cosmos 1745 Rocket 4.2 23:20:32 10° NNW 23:26:49 67° W 23:28:24 50° SSW
Terra 2.0 23:28:13 66° W 23:28:13 66° W 23:32:52 10° NNW
Cosmos 1536 3.7 23:26:34 10° NNW 23:29:40 48° NW 23:29:40 48° NW
Cosmos 2278 Rocket 2.6 23:25:26 10° NW 23:30:52 49° WSW 23:31:26 47° SW
Meteor 2-9 4.4 23:26:18 10° N 23:31:42 87° E 23:31:44 87° ESE
Cosmos 2333 Rocket 3.1 23:28:14 16° SW 23:32:38 47° WNW 23:38:13 10° NNE
NOSS 0 Rocket 4.5 23:30:34 19° SW 23:34:52 55° WNW 23:40:55 10° NNE
Okean 1 Rocket 3.7 23:32:06 10° NNW 23:35:57 54° WNW 23:35:57 54° WNW
Cosmos 2285 Rocket 3.9 23:40:54 72° SE 23:41:11 73° ESE 23:47:33 10° NNE
Cosmos 1814 Rocket 4.0 23:44:26 72° N 23:44:26 72° N 23:49:04 10° NNE
H-2A R/B 3.4 23:47:46 32° W 23:47:46 32° W 23:51:13 10° NNW
ATLAS 3B R/B 3.3 23:40:52 10° NNW 23:47:29 47° NE 23:49:09 40° E
Spot 4 4.1 23:49:19 63° NW 23:49:19 63° NW 23:53:26 10° NNW
Cosmos 2219 Rocket 4.0 23:45:16 10° WSW 23:50:05 29° NW 23:54:58 10° N
CZ-2C R/B 4.3 23:55:29 29° NE 23:55:29 29° NE 23:59:15 10° N
